This is the latest recevied weather packets stored in our database for station/object DG7FDL-7. If no packets are shown the sender has not sent any weather packets the latest 10 day(s).
| Time | Temp. | Humidity | Pressure | Rain* | Wind** | Luminosity | Snow |
|---|---|---|---|---|---|---|---|
| 1777953170 | 22.22° C | 45% | 1011.7 hPa | - | - | - | - |
| 1777952270 | 22.22° C | 45% | 1011.8 hPa | - | - | - | - |
| 1777951370 | 22.22° C | 45% | 1011.8 hPa | - | - | - | - |
| 1777950470 | 22.78° C | 44% | 1012 hPa | - | - | - | - |
| 1777949570 | 22.22° C | 45% | 1012 hPa | - | - | - | - |
| 1777948676 | 22.22° C | 45% | 1012.3 hPa | - | - | - | - |
| 1777947769 | 22.22° C | 45% | 1012.3 hPa | - | - | - | - |
| 1777946869 | 22.78° C | 44% | 1012.5 hPa | - | - | - | - |
| 1777945969 | 22.78° C | 44% | 1012.4 hPa | - | - | - | - |
| 1777945069 | 22.78° C | 44% | 1012.7 hPa | - | - | - | - |
| 1777944169 | 22.78° C | 44% | 1012.7 hPa | - | - | - | - |
| 1777943269 | 22.78° C | 44% | 1012.8 hPa | - | - | - | - |
| 1777942374 | 22.78° C | 43% | 1012.8 hPa | - | - | - | - |
| 1777941476 | 22.78° C | 43% | 1013 hPa | - | - | - | - |
| 1777940584 | 23.33° C | 43% | 1013.2 hPa | - | - | - | - |
| 1777939667 | 23.33° C | 43% | 1013.3 hPa | - | - | - | - |
| 1777938767 | 23.33° C | 43% | 1013.4 hPa | - | - | - | - |
| 1777937867 | 22.78° C | 45% | 1013.4 hPa | - | - | - | - |
| 1777936967 | 22.22° C | 45% | 1013.5 hPa | - | - | - | - |
| 1777936067 | 23.33° C | 44% | 1013.7 hPa | - | - | - | - |
| 1777935167 | 23.33° C | 44% | 1013.8 hPa | - | - | - | - |
| 1777934281 | 23.89° C | 43% | 1013.9 hPa | - | - | - | - |
| 1777933366 | 24.44° C | 42% | 1014 hPa | - | - | - | - |
| 1777932466 | 25.56° C | 40% | 1014.1 hPa | - | - | - | - |
| 1777931566 | 26.11° C | 39% | 1014.1 hPa | - | - | - | - |
* Rain since midnight (hover to see other rain measurements)
** Current wind speed in m/s (hover to see current wind gust speed)